RH
39 37 35 35 34 32 34 36 34 28 23 20 19 22 34 40 36 55 61 56 49 52 57 54 48 49 47 37 33 25 18 18 20 24 28 28 31 32 27 24 20 18 17 18 19 21 21 21 21
37 36 32 30 29 41 43 42 37 26 26 24 22 26 33 38 41 45 60 60 55 52 55 52 46 50 48 39 37 32 22 19 22 29 31 34 33 34 30 26 24 21 19 20 22 23 24 24 24
38 35 33 29 28 45 50 46 43 35 29 28 25 29 42 64 53 50 56 49 41 38 49 50 50 52 53 44 42 36 29 25 22 32 34 43 40 36 34 29 27 23 22 22 23 24 25 24 25
38 40 32 32 37 40 51 63 55 45 35 32 32 34 50 72 65 56 67 68 56 50 38 43 50 50 55 52 48 40 34 28 25 34 40 45 46 41 37 33 29 27 25 24 27 27 27 27 26
41 38 38 32 45 48 42 58 66 61 48 38 36 33 35 63 79 81 82 72 49 51 44 40 47 50 51 51 47 44 40 31 28 31 42 49 51 46 41 39 33 32 29 27 29 31 30 31 28
56 46 47 42 47 50 55 61 60 66 68 48 38 40 39 53 75 83 79 65 52 42 51 41 48 60 59 56 49 48 43 39 32 30 38 46 58 51 47 43 42 36 31 30 33 36 36 35 32
52 51 51 56 51 42 59 70 70 65 72 67 49 42 41 39 47 54 60 50 55 69 59 46 47 67 70 69 58 55 53 47 39 32 39 43 57 61 52 48 43 42 35 33 35 41 42 40 37
46 51 54 58 66 57 59 65 76 78 78 80 73 50 48 43 36 33 32 52 59 68 70 73 65 80 94 87 74 65 60 55 44 38 35 44 55 68 63 56 48 43 39 41 46 48 48 42 41
33 38 41 43 49 60 58 65 75 74 81 73 74 58 53 50 46 36 33 41 49 72 97 77 92 94 88 90 85 75 71 65 49 45 37 43 50 67 75 66 59 53 48 47 50 52 55 48 47
27 30 33 34 34 39 48 57 66 74 79 89 76 71 58 53 52 50 39 39 43 51 68 86 78 78 90 92 93 93 86 74 62 52 46 46 54 63 79 75 68 65 59 58 55 60 64 59 57
37 30 26 26 28 32 34 35 41 48 61 82 78 66 55 44 48 55 54 41 40 48 42 40 48 83 89 84 83 95 98 88 74 61 53 50 54 62 69 75 77 75 67 65 63 64 63 65 64
46 46 46 44 40 34 30 25 24 28 35 39 50 53 47 44 39 42 55 65 62 44 52 43 37 40 59 88 95 95 99 98 85 74 64 57 68 71 69 79 86 89 74 66 68 66 65 62 56
30 29 32 32 31 31 34 34 36 28 20 21 25 33 37 34 36 36 43 64 78 65 69 57 47 45 42 42 68 94 92 100 93 83 72 66 70 76 65 85 86 84 90 86 77 74 79 86 87
29 28 27 27 26 22 19 16 18 20 22 20 22 21 26 28 30 29 31 46 73 82 86 76 77 58 53 57 48 56 76 97 99 91 83 78 71 69 70 74 76 79 89 100 97 100 100 100 100
41 38 34 33 30 28 26 26 18 13 12 14 16 21 22 20 22 25 24 32 56 78 90 95 99 87 74 61 75 80 57 79 100 100 99 96 85 71 71 74 78 75 67 84 98 100 100 100 100
44 42 38 32 31 30 28 30 18 11 11 13 11 13 17 21 21 23 21 20 39 98 97 81 90 96 88 89 89 100 100 70 94 100 100 100 98 86 77 66 64 79 67 64 89 96 98 91 81
42 40 34 32 27 24 21 22 17 14 9 11 10 10 11 14 18 25 26 20 24 90 100 93 87 88 100 100 100 90 77 84 77 96 98 100 100 100 100 87 74 70 74 66 66 78 86 91 96
30 30 29 24 20 17 14 13 12 10 9 10 8 7 8 10 11 17 25 27 22 80 100 100 95 92 91 73 100 100 93 88 86 71 92 100 100 100 100 98 89 85 90 94 95 100 100 100 100
23 23 25 25 22 20 14 10 9 7 6 6 6 5 5 7 11 10 14 27 25 36 100 89 100 100 100 100 100 100 100 100 100 99 78 86 100 100 100 100 100 100 89 86 89 97 95 99 96
41 41 29 20 14 11 9 7 6 5 4 4 4 5 5 5 7 10 10 18 26 48 100 71 100 100 100 100 100 100 100 100 88 90 99 90 95 100 100 100 100 100 100 99 93 82 88 89 89
42 29 18 11 12 9 8 5 5 4 3 3 2 3 4 5 6 8 12 13 19 31 69 81 100 94 100 100 100 100 100 100 100 100 99 100 100 100 100 100 100 100 100 100 100 100 94 87 78
37 20 13 12 11 10 7 5 4 4 4 3 3 3 3 4 6 8 9 15 16 26 29 73 100 100 96 100 100 100 100 100 100 100 95 99 100 100 100 100 100 100 100 100 100 100 100 100 100
34 20 14 14 11 9 7 6 5 4 4 3 3 2 2 2 4 6 10 12 18 19 26 89 100 100 100 95 100 100 100 100 100 100 100 100 100 100 100 100 100 100 100 100 100 100 100 100 100
37 21 19 18 14 12 9 7 5 5 4 4 3 2 2 2 3 5 9 12 17 20 21 52 100 100 95 72 89 100 100 100 98 99 91 100 100 100 100 100 100 100 100 100 100 99 100 100 100
38 22 28 26 20 11 11 9 6 6 5 4 3 2 2 2 3 3 7 12 14 19 22 21 35 53 62 38 31 100 91 100 84 77 75 88 100 100 100 100 100 100 100 100 100 90 100 100 100
47 27 25 30 26 15 13 9 8 6 6 5 4 3 2 2 3 3 4 9 14 16 19 21 24 25 23 26 28 28 35 71 100 80 85 100 92 100 100 100 100 100 100 100 88 99 100 100 100
56 44 35 42 44 30 16 12 9 7 6 6 5 4 3 2 2 3 3 5 10 16 18 20 22 25 26 26 38 32 37 47 57 100 100 100 100 100 100 100 100 100 100 100 100 100 100 100 98
68 53 54 42 40 37 21 11 10 8 6 7 6 5 4 3 3 3 3 4 5 10 16 18 20 22 25 28 35 37 42 56 72 100 83 88 100 100 100 100 100 100 100 100 100 100 100 78 74
75 61 65 66 51 41 26 13 10 9 8 8 7 6 6 4 4 3 4 4 5 6 10 16 19 20 24 28 32 38 43 47 64 71 100 100 69 99 100 100 100 100 100 100 90 98 97 80 100
84 68 64 68 70 55 36 15 10 10 9 10 8 8 8 6 5 4 4 5 6 7 8 10 15 19 21 27 31 35 38 44 73 100 91 76 66 98 100 100 100 100 100 100 100 80 62 72 88
Wind_Speed
59 56 54 52 49 44 46 49 55 52 51 46 44 48 52 50 49 46 43 42 41 42 41 40 39 36 34 32 30 28 28 26 26 26 26 22 21 19 17 17 18 18 17 16 15 15 15 14 12
64 61 56 53 48 44 49 55 56 58 50 48 44 45 51 54 52 49 47 44 40 41 40 40 41 38 35 34 30 30 28 28 27 27 26 24 21 20 19 19 19 19 19 19 19 18 17 16 15
65 65 61 56 51 50 55 58 57 58 51 48 46 45 48 54 55 53 49 47 46 45 43 41 42 40 36 35 32 31 30 30 29 28 27 24 22 22 21 21 21 21 22 22 21 20 20 19 17
67 65 66 61 58 57 60 60 60 62 57 46 46 47 46 53 55 54 51 47 45 46 48 47 44 41 39 37 36 32 32 31 30 29 27 26 23 23 23 22 23 23 23 24 23 23 22 22 20
70 68 67 64 63 62 64 63 62 63 63 53 48 48 48 51 52 53 52 50 50 49 48 48 47 46 44 40 38 35 33 32 32 31 28 27 25 24 24 24 25 25 25 26 25 25 25 24 23
71 70 68 66 66 67 66 65 65 64 65 61 51 48 51 55 56 55 54 52 51 51 51 50 49 48 46 43 40 38 34 34 34 33 30 29 27 27 26 26 27 28 27 29 28 26 26 26 24
69 69 68 68 67 69 68 67 67 67 67 67 57 52 52 56 57 56 55 54 52 49 48 50 51 48 47 47 43 40 36 35 37 36 33 32 30 29 28 29 29 30 30 30 30 29 29 28 28
71 70 69 68 68 67 69 69 69 69 70 70 65 56 54 58 60 57 54 53 52 51 50 48 49 50 46 45 44 42 39 37 38 39 37 34 33 32 31 30 31 32 32 32 32 32 31 32 32
72 73 73 73 71 70 71 70 71 71 72 72 72 64 60 61 62 62 59 54 54 52 51 50 49 49 48 46 45 43 41 39 39 39 39 38 36 35 34 32 32 33 35 35 36 36 34 33 34
70 74 77 78 75 73 74 73 75 73 73 77 74 73 65 67 65 65 62 59 57 56 54 52 51 50 50 49 46 44 43 42 41 40 41 40 39 38 37 36 34 34 37 37 37 37 36 36 36
50 59 66 71 77 79 80 79 79 80 79 82 81 79 74 70 70 67 67 65 64 61 58 56 53 52 52 51 52 49 46 45 44 43 42 42 42 41 41 40 39 36 36 39 41 41 42 42 43
46 47 49 51 54 60 65 76 84 85 87 84 84 84 82 78 75 71 69 68 68 66 64 62 59 56 53 52 54 53 50 49 48 46 45 44 44 43 42 42 41 41 39 39 38 41 43 43 44
47 50 51 54 56 58 59 63 63 68 71 80 87 90 90 88 82 77 71 68 71 71 66 67 65 62 58 57 55 55 53 51 51 49 48 48 47 47 45 44 43 43 44 41 41 40 40 41 42
46 48 50 51 52 54 54 60 60 72 69 68 69 74 83 85 85 84 79 74 72 73 73 71 68 68 65 61 59 57 57 56 53 52 52 51 50 50 49 48 47 46 44 42 40 39 41 44 45
49 53 55 56 56 58 57 64 61 63 64 70 71 71 69 73 79 80 81 76 72 73 75 72 69 72 70 69 66 65 61 59 57 55 54 53 51 51 52 50 49 49 48 45 44 44 47 49 50
57 59 62 64 63 65 65 70 72 67 62 61 67 73 74 72 70 73 77 75 74 75 69 72 71 71 69 70 69 66 66 64 61 58 56 55 53 53 53 53 52 51 49 48 47 48 50 51 53
64 65 68 71 71 72 74 74 78 77 70 69 64 67 73 78 75 71 71 73 74 59 69 67 65 67 76 75 72 70 67 65 63 62 59 58 57 56 56 55 53 52 52 51 51 52 54 56 56
63 68 73 71 73 74 77 75 75 80 78 76 73 67 67 74 79 79 73 70 70 78 77 65 54 69 72 76 75 76 72 67 65 66 65 62 60 59 59 59 58 58 57 56 56 57 57 58 60
49 53 54 59 60 64 69 71 68 72 73 73 75 77 69 71 80 81 78 74 67 74 72 47 34 62 80 81 88 83 79 75 72 69 69 69 64 62 61 59 59 60 62 62 63 63 63 64 66
43 47 51 59 61 58 66 70 65 68 69 68 69 75 74 72 78 78 82 79 74 77 79 57 40 58 76 74 78 81 84 80 74 70 69 70 70 68 66 63 62 62 64 66 67 68 68 68 70
44 47 50 48 51 54 54 62 57 59 61 59 57 61 69 76 82 85 84 86 82 78 81 82 80 43 67 69 71 74 75 78 74 74 73 74 72 71 69 67 68 67 66 66 66 69 72 73 75
44 47 49 46 44 46 48 51 50 48 52 54 53 54 61 70 80 89 88 90 88 86 85 101 98 72 76 76 73 72 72 75 79 79 74 72 73 72 72 70 68 69 72 71 71 71 73 75 77
44 48 49 46 42 43 42 44 41 41 43 47 48 46 51 62 74 84 93 93 99 95 93 106 97 74 56 76 81 75 80 77 78 76 76 75 72 72 74 72 73 75 75 77 78 79 79 78 79
45 50 54 51 46 45 45 41 38 36 35 39 40 38 41 51 63 77 90 99 101 104 102 106 112 114 113 83 75 66 47 76 77 76 69 68 72 73 72 71 74 75 78 82 82 83 82 79 80
45 47 53 56 55 44 43 41 37 32 30 30 31 31 34 44 54 67 84 96 106 110 112 109 114 115 113 97 91 78 65 71 76 70 72 64 68 70 72 75 75 78 79 81 81 80 78 80 82
45 48 52 57 60 55 54 43 37 30 27 24 25 25 28 35 48 60 72 90 103 112 113 117 117 116 108 99 99 96 89 76 79 79 72 65 61 61 66 73 79 81 82 86 85 80 78 82 84
45 49 53 56 61 64 56 49 36 30 24 22 21 22 23 30 39 52 62 76 94 107 116 116 116 116 111 104 100 96 90 91 84 71 79 75 74 68 70 69 70 75 77 76 77 82 88 86 93
46 48 52 57 59 63 62 49 40 31 25 21 20 19 19 23 32 42 52 60 75 93 107 115 115 112 111 107 102 96 93 94 90 86 83 79 74 76 69 67 79 75 82 84 83 82 89 97 95
44 45 49 56 61 66 63 50 38 32 27 22 19 18 17 19 25 32 41 49 58 71 89 104 113 114 111 108 104 101 98 99 99 96 88 77 82 78 77 67 83 79 80 91 90 87 86 93 94
44 45 47 51 59 64 65 53 39 31 26 21 18 16 14 16 21 26 33 40 48 59 69 83 98 110 115 114 109 108 105 101 100 97 93 102 91 86 79 89 83 81 81 79 82 88 100 102 100
Wind_Direction
250 251 251 253 254 254 256 255 256 251 249 250 253 253 253 254 255 255 259 262 261 262 265 265 266 269 273 273 276 279 277 280 278 272 269 268 265 259 254 246 242 237 234 229 227 230 232 236 239
250 250 250 251 254 255 254 253 254 257 255 252 251 252 250 252 254 255 257 260 262 263 263 266 265 267 269 271 275 276 277 280 279 273 267 266 260 253 251 242 240 239 235 230 229 233 236 240 245
248 250 250 251 252 252 252 254 258 264 260 256 253 252 251 252 253 254 256 260 262 263 262 263 264 264 265 267 271 272 272 276 277 272 265 262 254 250 246 240 238 239 235 234 234 238 241 246 248
249 249 250 250 249 251 253 256 257 261 262 259 255 253 252 249 251 252 256 257 258 260 261 260 260 261 262 264 266 267 269 271 272 271 265 261 252 249 245 241 238 237 237 237 238 244 246 250 250
248 249 250 248 248 249 251 255 258 260 263 259 253 255 253 251 249 250 251 255 258 256 256 257 258 259 261 260 263 263 264 267 268 269 264 260 252 247 244 243 241 241 241 239 240 245 246 250 247
246 249 249 248 246 248 249 252 255 258 261 260 256 251 252 250 249 250 251 254 256 255 253 253 255 256 258 260 260 261 260 264 265 265 263 259 255 249 248 247 243 242 244 242 241 246 250 252 252
249 249 250 249 247 247 249 250 254 256 258 259 254 251 247 252 252 250 251 252 251 255 256 255 252 254 254 257 260 260 259 260 263 263 261 258 255 251 251 250 247 243 243 242 243 247 251 254 256
249 250 250 251 250 250 250 251 251 253 255 258 255 249 248 247 250 249 248 248 250 252 253 255 254 250 250 253 256 260 259 257 259 262 260 257 254 250 249 249 249 245 243 243 244 249 250 253 258
250 251 252 252 251 250 251 250 251 251 253 255 256 251 248 246 246 249 248 247 247 247 250 250 248 249 250 250 251 254 257 256 255 257 259 256 253 253 249 249 249 249 247 248 250 253 252 252 256
250 252 254 255 254 254 253 251 252 252 252 255 254 254 248 248 245 246 246 245 245 246 247 249 250 250 250 251 251 251 253 256 255 255 256 254 252 252 251 252 249 249 250 251 252 254 255 255 257
256 256 255 255 254 254 254 253 253 252 251 251 252 252 250 249 247 244 247 246 245 246 247 248 250 250 251 252 253 252 252 254 254 254 254 253 252 251 251 252 253 250 252 253 252 254 256 258 260
259 259 259 259 257 257 257 257 255 253 251 250 252 253 253 251 248 245 246 246 246 244 247 246 248 249 250 252 253 253 252 252 253 252 251 251 251 250 251 254 254 254 255 256 256 258 260 262 264
268 265 263 263 262 259 258 258 258 257 253 253 252 251 252 252 249 246 244 244 246 246 244 247 248 249 249 249 250 252 252 250 252 252 251 251 250 250 250 250 254 256 257 259 263 265 266 268 269
270 268 266 265 266 267 265 263 258 258 258 254 251 249 249 249 248 248 246 242 244 246 246 243 247 248 248 247 249 249 252 251 250 250 250 251 253 252 251 251 254 256 259 262 265 265 266 268 271
273 273 272 272 271 272 271 270 264 260 257 255 254 251 246 246 246 244 244 239 237 244 247 245 245 247 248 248 249 250 249 249 249 249 249 251 254 255 255 253 256 259 260 260 260 261 265 269 274
273 274 274 272 271 270 269 271 270 264 258 259 257 253 251 246 244 242 241 236 234 235 247 251 252 249 249 249 248 248 249 247 248 248 249 251 252 255 257 258 257 260 262 264 264 266 268 271 273
276 275 273 273 273 272 269 268 269 270 267 261 253 253 249 247 243 240 237 234 228 216 225 239 247 253 254 252 250 248 247 247 247 249 249 250 252 254 257 260 261 261 262 263 265 268 272 276 277
278 279 279 278 280 278 275 270 269 268 267 264 263 255 248 245 244 239 236 232 223 215 223 238 247 249 252 257 253 249 248 248 247 248 248 250 252 255 257 260 263 265 267 268 269 271 273 275 277
283 282 283 286 285 285 281 276 274 271 268 264 258 257 249 242 240 240 235 230 222 213 216 205 231 242 253 254 248 248 247 245 245 248 248 248 250 253 256 259 264 267 269 269 269 271 273 275 277
292 295 297 294 291 286 283 281 278 273 269 264 256 252 250 243 238 236 236 229 223 212 208 210 203 233 243 240 238 242 246 246 246 245 248 251 251 252 255 257 260 264 267 269 272 272 273 275 277
302 301 301 298 296 292 285 283 280 275 272 266 259 250 245 241 236 232 230 230 223 216 209 207 204 244 235 236 236 239 242 246 248 246 246 247 250 253 256 258 261 261 263 266 270 273 274 276 277
308 312 315 310 306 301 295 291 290 279 272 267 263 255 246 239 233 229 226 225 226 217 208 203 206 216 234 232 234 241 242 242 244 246 249 250 252 253 255 257 260 262 263 264 267 270 273 276 279
317 320 324 321 317 313 305 299 295 284 276 273 268 259 247 236 230 228 223 221 220 219 213 201 208 198 201 227 231 243 246 248 245 246 249 250 254 255 254 257 259 261 264 265 267 269 273 277 280
323 329 334 336 334 332 320 313 305 298 287 281 276 263 248 236 229 225 222 219 219 219 218 207 212 213 221 229 231 233 238 241 251 250 248 249 251 254 256 257 260 262 265 266 267 269 272 276 277
327 332 340 342 342 340 331 323 315 306 296 289 282 265 247 235 228 223 221 219 217 217 218 220 216 223 226 229 227 221 227 239 239 248 248 249 251 256 258 258 261 263 264 267 269 272 274 274 275
330 334 341 347 346 345 340 332 321 315 305 295 286 269 248 233 226 224 220 219 218 217 219 219 221 224 226 226 229 229 235 239 240 247 248 253 253 256 260 258 260 262 265 268 270 273 276 275 277
332 339 343 347 345 343 344 336 326 319 313 301 290 273 249 236 228 224 222 219 219 219 219 220 222 223 225 226 229 230 233 237 243 244 245 245 247 250 255 259 262 262 264 268 272 274 277 276 276
331 338 343 344 346 346 343 339 331 328 324 312 296 283 256 238 230 225 223 222 221 221 221 221 222 223 224 224 226 229 230 234 235 237 242 242 240 247 252 255 262 262 264 266 267 269 270 276 279
327 336 343 345 346 345 345 342 336 332 331 325 304 289 266 244 234 227 221 221 221 222 222 222 222 223 224 225 225 227 228 232 236 239 239 242 244 246 246 248 253 263 264 266 267 268 269 275 277
324 330 342 346 343 345 344 343 344 339 335 329 306 292 275 250 238 229 223 221 219 218 219 222 223 222 222 225 224 225 227 229 233 235 240 241 243 243 245 246 255 263 258 261 265 266 270 271 276